User: anonymous   Login
Location: Pallagorio
(39.3000°N, 16.9000°E)
Time: 19:59:30
(UTC+00:00)
Language:

Meteor 2-15 Rocket - Orbit

View from above orbital plane
View from above orbital plane
View from above satellite
View from above satellite

Ground track
Ground track

The orbit data is extracted from the following two-line orbital elements,

1 17291U 87001B   21104.29790023  .00000036  00000-0  19208-4 0  9999
2 17291  82.4702 178.8749 0012613  87.7683 272.4921 13.84585260731753
Epoch (UTC): 14 April 2021 07:08:58
Eccentricity: 0.0012613
inclination: 82.4702°
perigee height: 938 km
apogee height: 957 km
right ascension of ascending node: 178.8749°
argument of perigee: 87.7683°
revolutions per day: 13.84585260
mean anomaly at epoch: 272.4921°
orbit number at epoch: 73175

The dashed part of the orbit path shows where the satellite is in the earth's shadow,  

DLR